GEFSGL_prec_meanprecacc_066.txt.gz
Total_Precipitation_Accumulation
0.20 0.18 0.16 0.14 0.11 0.10 0.09 0.08 0.07 0.06 0.06 0.06 0.06 0.06 0.06 0.05 0.05 0.06 0.07 0.08 0.08 0.07 0.07 0.08 0.08 0.08 0.10 0.09 0.10 0.11 0.13 0.19 0.23 0.11 0.05 0.06 0.12 0.19 0.27 0.30 0.31 0.30 0.26
0.14 0.11 0.10 0.08 0.08 0.07 0.06 0.06 0.05 0.06 0.06 0.06 0.07 0.06 0.05 0.05 0.06 0.07 0.07 0.07 0.07 0.07 0.07 0.07 0.07 0.08 0.09 0.08 0.09 0.10 0.12 0.18 0.26 0.22 0.11 0.07 0.10 0.17 0.23 0.25 0.23 0.22 0.24
0.09 0.07 0.06 0.05 0.05 0.05 0.05 0.06 0.06 0.06 0.07 0.07 0.06 0.06 0.06 0.06 0.07 0.07 0.07 0.06 0.06 0.06 0.07 0.08 0.08 0.09 0.08 0.08 0.11 0.12 0.14 0.18 0.26 0.28 0.18 0.12 0.15 0.21 0.31 0.31 0.27 0.32 0.29
0.06 0.04 0.05 0.05 0.05 0.06 0.07 0.07 0.07 0.08 0.08 0.08 0.07 0.07 0.07 0.07 0.06 0.04 0.03 0.04 0.04 0.05 0.06 0.08 0.10 0.10 0.11 0.14 0.15 0.17 0.22 0.25 0.25 0.28 0.22 0.16 0.18 0.23 0.33 0.41 0.39 0.36 0.34
0.07 0.06 0.07 0.07 0.07 0.09 0.10 0.11 0.11 0.10 0.09 0.09 0.08 0.07 0.06 0.04 0.02 0.01 0.01 0.01 0.02 0.03 0.05 0.08 0.10 0.11 0.15 0.17 0.18 0.21 0.27 0.32 0.33 0.35 0.30 0.25 0.22 0.29 0.38 0.43 0.42 0.40 0.34
0.11 0.12 0.12 0.12 0.13 0.14 0.14 0.14 0.14 0.12 0.11 0.08 0.05 0.03 0.03 0.02 0.01 0.01 0.01 0.01 0.02 0.04 0.07 0.09 0.07 0.06 0.08 0.08 0.13 0.20 0.29 0.36 0.42 0.46 0.43 0.37 0.29 0.33 0.42 0.48 0.49 0.48 0.38
0.19 0.19 0.18 0.17 0.17 0.17 0.15 0.13 0.11 0.09 0.06 0.05 0.04 0.03 0.03 0.03 0.00 0.00 0.00 0.00 0.03 0.06 0.10 0.09 0.07 0.06 0.09 0.13 0.14 0.16 0.21 0.29 0.43 0.56 0.55 0.43 0.39 0.41 0.56 0.63 0.56 0.55 0.50
0.24 0.23 0.21 0.19 0.17 0.14 0.11 0.09 0.07 0.05 0.05 0.04 0.03 0.03 0.04 0.03 0.00 0.00 0.00 0.01 0.04 0.07 0.08 0.09 0.12 0.13 0.13 0.13 0.13 0.18 0.23 0.29 0.39 0.48 0.51 0.46 0.46 0.48 0.56 0.60 0.56 0.55 0.43
0.24 0.20 0.16 0.12 0.09 0.07 0.06 0.05 0.04 0.04 0.04 0.03 0.02 0.03 0.05 0.05 0.01 0.00 0.00 0.02 0.03 0.04 0.06 0.08 0.11 0.14 0.12 0.12 0.18 0.26 0.30 0.38 0.52 0.69 0.70 0.64 0.64 0.63 0.54 0.50 0.55 0.60 0.52
0.14 0.10 0.07 0.05 0.04 0.03 0.03 0.03 0.04 0.04 0.04 0.03 0.03 0.04 0.06 0.07 0.02 0.00 0.01 0.02 0.04 0.04 0.05 0.08 0.10 0.10 0.11 0.14 0.21 0.33 0.45 0.52 0.72 0.91 0.85 0.77 0.69 0.67 0.62 0.54 0.61 0.71 0.66
0.07 0.05 0.03 0.02 0.02 0.02 0.03 0.04 0.05 0.05 0.05 0.05 0.05 0.06 0.07 0.05 0.03 0.00 0.01 0.03 0.05 0.06 0.08 0.11 0.16 0.15 0.15 0.17 0.27 0.43 0.60 0.66 0.83 1.02 0.86 0.65 0.55 0.48 0.50 0.55 0.59 0.61 0.59
0.05 0.04 0.03 0.02 0.01 0.02 0.04 0.07 0.07 0.07 0.06 0.06 0.05 0.05 0.05 0.06 0.04 0.01 0.00 0.01 0.04 0.09 0.17 0.20 0.23 0.23 0.20 0.26 0.39 0.56 0.71 0.83 0.89 0.92 0.74 0.54 0.44 0.42 0.44 0.44 0.41 0.40 0.43
0.06 0.05 0.04 0.03 0.03 0.03 0.05 0.07 0.08 0.08 0.06 0.05 0.05 0.05 0.05 0.06 0.06 0.02 0.01 0.02 0.04 0.11 0.22 0.31 0.32 0.29 0.35 0.49 0.64 0.77 0.86 0.92 0.89 0.76 0.62 0.51 0.40 0.36 0.35 0.35 0.32 0.33 0.36
0.05 0.04 0.04 0.05 0.05 0.06 0.07 0.06 0.07 0.07 0.05 0.05 0.06 0.06 0.07 0.08 0.07 0.05 0.04 0.06 0.09 0.13 0.19 0.32 0.42 0.44 0.57 0.74 0.85 0.90 0.94 0.96 0.85 0.68 0.56 0.46 0.36 0.31 0.31 0.29 0.29 0.30 0.32
0.05 0.04 0.04 0.04 0.05 0.09 0.09 0.05 0.04 0.04 0.01 0.03 0.05 0.06 0.10 0.11 0.07 0.06 0.08 0.11 0.14 0.18 0.21 0.28 0.37 0.45 0.60 0.74 0.84 0.87 0.88 0.89 0.81 0.66 0.54 0.44 0.36 0.32 0.31 0.29 0.28 0.28 0.31
0.06 0.05 0.03 0.03 0.04 0.06 0.09 0.10 0.04 0.01 0.00 0.01 0.03 0.05 0.07 0.08 0.07 0.05 0.07 0.12 0.16 0.23 0.26 0.35 0.46 0.54 0.64 0.74 0.82 0.89 0.86 0.80 0.73 0.65 0.56 0.48 0.41 0.35 0.33 0.30 0.27 0.27 0.30
0.04 0.04 0.02 0.02 0.03 0.04 0.06 0.11 0.12 0.08 0.02 0.02 0.02 0.03 0.05 0.06 0.07 0.06 0.06 0.11 0.15 0.22 0.29 0.43 0.56 0.65 0.71 0.75 0.76 0.78 0.81 0.79 0.70 0.61 0.54 0.48 0.41 0.34 0.31 0.29 0.26 0.25 0.25
0.02 0.02 0.02 0.02 0.02 0.03 0.04 0.06 0.09 0.13 0.13 0.11 0.06 0.04 0.04 0.07 0.09 0.09 0.09 0.10 0.12 0.20 0.33 0.50 0.62 0.68 0.73 0.75 0.72 0.69 0.71 0.71 0.64 0.55 0.49 0.43 0.38 0.32 0.28 0.26 0.23 0.19 0.18
0.01 0.02 0.02 0.01 0.01 0.01 0.02 0.03 0.05 0.08 0.10 0.10 0.08 0.06 0.07 0.10 0.12 0.13 0.14 0.12 0.16 0.24 0.35 0.48 0.58 0.63 0.64 0.65 0.65 0.63 0.62 0.63 0.58 0.51 0.47 0.43 0.38 0.31 0.26 0.21 0.16 0.13 0.13
0.01 0.00 0.00 0.01 0.01 0.01 0.01 0.02 0.04 0.07 0.08 0.08 0.08 0.07 0.08 0.14 0.17 0.17 0.15 0.16 0.19 0.25 0.32 0.44 0.52 0.55 0.54 0.50 0.48 0.48 0.49 0.48 0.48 0.46 0.44 0.40 0.35 0.29 0.23 0.18 0.15 0.13 0.13
0.01 0.01 0.00 0.00 0.00 0.00 0.01 0.01 0.02 0.05 0.06 0.07 0.07 0.08 0.14 0.18 0.22 0.25 0.25 0.27 0.28 0.29 0.32 0.36 0.41 0.45 0.44 0.40 0.36 0.33 0.34 0.37 0.38 0.38 0.37 0.34 0.28 0.23 0.19 0.14 0.12 0.09 0.08
0.01 0.01 0.00 0.00 0.00 0.00 0.00 0.00 0.01 0.02 0.04 0.05 0.07 0.08 0.15 0.17 0.21 0.27 0.32 0.34 0.36 0.36 0.33 0.33 0.34 0.36 0.35 0.33 0.30 0.27 0.26 0.27 0.28 0.31 0.32 0.29 0.24 0.18 0.13 0.10 0.07 0.06 0.05
0.00 0.01 0.01 0.00 0.00 0.00 0.00 0.01 0.01 0.01 0.02 0.03 0.05 0.07 0.10 0.15 0.22 0.29 0.36 0.37 0.37 0.37 0.33 0.29 0.32 0.35 0.32 0.28 0.25 0.22 0.21 0.21 0.21 0.24 0.30 0.30 0.23 0.16 0.11 0.07 0.05 0.04 0.03
0.00 0.00 0.00 0.00 0.00 0.00 0.00 0.00 0.00 0.01 0.01 0.02 0.03 0.05 0.08 0.12 0.18 0.25 0.31 0.35 0.37 0.37 0.37 0.37 0.37 0.36 0.31 0.25 0.21 0.19 0.18 0.19 0.19 0.23 0.27 0.28 0.21 0.13 0.08 0.06 0.05 0.04 0.04
0.00 0.00 0.00 0.00 0.00 0.00 0.00 0.00 0.00 0.01 0.01 0.02 0.02 0.04 0.05 0.08 0.11 0.15 0.21 0.26 0.29 0.32 0.34 0.36 0.35 0.32 0.27 0.21 0.17 0.14 0.16 0.16 0.14 0.18 0.25 0.27 0.19 0.12 0.09 0.06 0.05 0.04 0.04
0.00 0.00 0.00 0.00 0.00 0.00 0.00 0.00 0.00 0.00 0.01 0.01 0.01 0.02 0.03 0.05 0.08 0.11 0.14 0.17 0.19 0.23 0.27 0.32 0.32 0.23 0.15 0.11 0.11 0.10 0.08 0.06 0.05 0.08 0.18 0.23 0.17 0.12 0.12 0.09 0.05 0.04 0.05

GEFSGL_prec_meanprecacc_072.txt.gz
Total_Precipitation_Accumulation
0.24 0.23 0.21 0.18 0.15 0.12 0.11 0.10 0.09 0.08 0.08 0.08 0.08 0.08 0.08 0.07 0.06 0.07 0.08 0.09 0.08 0.08 0.08 0.08 0.08 0.08 0.10 0.09 0.10 0.11 0.13 0.20 0.23 0.12 0.05 0.06 0.12 0.20 0.27 0.30 0.31 0.30 0.26
0.16 0.15 0.12 0.10 0.09 0.08 0.07 0.07 0.07 0.07 0.07 0.07 0.08 0.08 0.07 0.06 0.07 0.08 0.08 0.08 0.08 0.08 0.07 0.08 0.07 0.08 0.09 0.08 0.09 0.10 0.13 0.19 0.27 0.23 0.12 0.08 0.11 0.18 0.23 0.25 0.23 0.22 0.25
0.11 0.09 0.08 0.06 0.06 0.06 0.06 0.06 0.06 0.07 0.07 0.08 0.07 0.06 0.06 0.07 0.08 0.07 0.07 0.06 0.06 0.06 0.07 0.08 0.08 0.09 0.09 0.09 0.12 0.13 0.16 0.20 0.27 0.30 0.19 0.13 0.15 0.22 0.32 0.32 0.28 0.34 0.30
0.07 0.06 0.06 0.06 0.06 0.07 0.07 0.08 0.08 0.08 0.09 0.08 0.07 0.07 0.07 0.07 0.06 0.04 0.03 0.04 0.04 0.05 0.06 0.08 0.10 0.11 0.13 0.17 0.18 0.20 0.25 0.28 0.28 0.30 0.24 0.17 0.19 0.24 0.35 0.43 0.40 0.38 0.35
0.08 0.08 0.08 0.08 0.08 0.10 0.11 0.11 0.11 0.11 0.09 0.09 0.08 0.07 0.06 0.04 0.02 0.01 0.01 0.01 0.02 0.03 0.05 0.09 0.10 0.11 0.16 0.19 0.19 0.23 0.31 0.36 0.37 0.38 0.32 0.27 0.24 0.32 0.41 0.46 0.44 0.42 0.35
0.12 0.13 0.13 0.13 0.14 0.15 0.15 0.14 0.14 0.12 0.11 0.08 0.05 0.03 0.03 0.02 0.01 0.01 0.01 0.01 0.02 0.04 0.07 0.09 0.07 0.07 0.08 0.09 0.13 0.21 0.30 0.38 0.44 0.49 0.45 0.40 0.32 0.38 0.48 0.52 0.53 0.52 0.41
0.20 0.19 0.18 0.17 0.18 0.17 0.15 0.13 0.11 0.09 0.07 0.05 0.04 0.03 0.04 0.03 0.00 0.00 0.00 0.00 0.03 0.07 0.10 0.10 0.07 0.07 0.10 0.15 0.16 0.17 0.23 0.30 0.45 0.58 0.58 0.47 0.44 0.47 0.61 0.67 0.61 0.60 0.55
0.24 0.23 0.22 0.19 0.17 0.14 0.11 0.09 0.07 0.06 0.05 0.04 0.04 0.03 0.05 0.03 0.00 0.00 0.00 0.01 0.04 0.07 0.09 0.10 0.13 0.15 0.14 0.13 0.14 0.20 0.26 0.33 0.43 0.51 0.56 0.51 0.49 0.52 0.60 0.64 0.60 0.58 0.46
0.24 0.20 0.16 0.12 0.10 0.08 0.06 0.05 0.04 0.04 0.04 0.03 0.03 0.04 0.06 0.06 0.01 0.00 0.00 0.02 0.04 0.05 0.06 0.09 0.11 0.15 0.13 0.12 0.18 0.29 0.34 0.45 0.56 0.71 0.71 0.66 0.66 0.64 0.55 0.52 0.60 0.65 0.57
0.14 0.10 0.07 0.05 0.04 0.03 0.03 0.04 0.04 0.04 0.04 0.03 0.03 0.05 0.06 0.08 0.02 0.00 0.01 0.03 0.04 0.04 0.06 0.09 0.11 0.10 0.11 0.15 0.22 0.37 0.50 0.58 0.76 0.95 0.88 0.81 0.74 0.71 0.63 0.57 0.66 0.76 0.71
0.07 0.05 0.03 0.02 0.02 0.02 0.03 0.05 0.06 0.06 0.06 0.05 0.05 0.06 0.07 0.05 0.03 0.00 0.01 0.03 0.05 0.06 0.09 0.13 0.18 0.16 0.15 0.18 0.29 0.46 0.64 0.68 0.86 1.07 0.91 0.72 0.62 0.55 0.55 0.59 0.63 0.66 0.64
0.05 0.04 0.03 0.02 0.02 0.02 0.05 0.08 0.08 0.08 0.07 0.06 0.06 0.06 0.05 0.06 0.04 0.01 0.00 0.01 0.04 0.09 0.18 0.22 0.25 0.24 0.22 0.27 0.40 0.58 0.72 0.86 0.95 0.99 0.80 0.61 0.50 0.47 0.48 0.46 0.43 0.43 0.46
0.07 0.06 0.04 0.03 0.03 0.03 0.06 0.08 0.09 0.08 0.06 0.05 0.06 0.05 0.05 0.06 0.06 0.02 0.01 0.02 0.05 0.12 0.24 0.32 0.33 0.30 0.36 0.52 0.66 0.78 0.89 0.98 0.97 0.83 0.68 0.57 0.45 0.40 0.39 0.38 0.35 0.37 0.40
0.06 0.05 0.04 0.05 0.06 0.06 0.07 0.06 0.07 0.07 0.05 0.05 0.06 0.06 0.07 0.09 0.07 0.05 0.05 0.06 0.09 0.14 0.21 0.35 0.44 0.47 0.60 0.78 0.90 0.96 1.02 1.02 0.89 0.75 0.62 0.52 0.42 0.37 0.36 0.32 0.32 0.34 0.36
0.06 0.04 0.04 0.05 0.05 0.09 0.09 0.05 0.04 0.04 0.02 0.03 0.05 0.07 0.10 0.11 0.08 0.06 0.09 0.11 0.14 0.19 0.22 0.32 0.42 0.50 0.65 0.80 0.90 0.94 0.96 0.96 0.88 0.73 0.61 0.51 0.42 0.38 0.36 0.33 0.32 0.32 0.35
0.06 0.05 0.03 0.03 0.05 0.06 0.10 0.10 0.04 0.01 0.00 0.01 0.03 0.05 0.07 0.09 0.07 0.06 0.08 0.12 0.17 0.23 0.28 0.39 0.50 0.56 0.66 0.77 0.86 0.93 0.91 0.85 0.77 0.70 0.63 0.56 0.48 0.41 0.39 0.36 0.32 0.31 0.35
0.04 0.04 0.02 0.02 0.03 0.04 0.07 0.11 0.13 0.08 0.02 0.02 0.02 0.03 0.05 0.06 0.07 0.06 0.07 0.11 0.15 0.24 0.32 0.46 0.59 0.67 0.73 0.77 0.79 0.81 0.84 0.83 0.74 0.67 0.61 0.55 0.48 0.40 0.37 0.36 0.32 0.30 0.30
0.02 0.02 0.02 0.02 0.02 0.03 0.04 0.06 0.09 0.13 0.13 0.11 0.06 0.04 0.04 0.07 0.09 0.09 0.10 0.11 0.14 0.21 0.35 0.51 0.63 0.69 0.74 0.77 0.75 0.71 0.73 0.74 0.68 0.59 0.54 0.49 0.44 0.38 0.34 0.33 0.29 0.23 0.22
0.01 0.02 0.02 0.01 0.01 0.01 0.02 0.03 0.05 0.08 0.11 0.11 0.09 0.06 0.07 0.10 0.12 0.13 0.15 0.13 0.18 0.25 0.36 0.49 0.59 0.64 0.65 0.66 0.66 0.64 0.64 0.65 0.60 0.54 0.50 0.46 0.41 0.36 0.32 0.26 0.22 0.16 0.17
0.01 0.00 0.00 0.01 0.01 0.01 0.01 0.02 0.05 0.08 0.08 0.09 0.09 0.07 0.09 0.15 0.20 0.19 0.17 0.17 0.20 0.25 0.33 0.44 0.53 0.55 0.54 0.51 0.48 0.48 0.49 0.50 0.49 0.47 0.45 0.42 0.38 0.33 0.26 0.22 0.19 0.17 0.18
0.01 0.01 0.00 0.00 0.00 0.00 0.01 0.01 0.02 0.05 0.07 0.07 0.07 0.08 0.15 0.19 0.25 0.26 0.26 0.27 0.28 0.29 0.32 0.36 0.41 0.45 0.44 0.40 0.36 0.34 0.34 0.37 0.38 0.38 0.38 0.35 0.31 0.27 0.21 0.17 0.15 0.12 0.12
0.01 0.01 0.00 0.00 0.00 0.00 0.00 0.01 0.01 0.02 0.04 0.06 0.08 0.09 0.15 0.18 0.22 0.29 0.33 0.34 0.36 0.36 0.33 0.33 0.34 0.36 0.35 0.33 0.30 0.27 0.26 0.27 0.28 0.31 0.33 0.31 0.26 0.21 0.16 0.12 0.09 0.08 0.07
0.00 0.01 0.01 0.00 0.00 0.00 0.00 0.01 0.01 0.01 0.02 0.04 0.06 0.08 0.11 0.17 0.23 0.31 0.37 0.37 0.37 0.37 0.33 0.29 0.32 0.35 0.32 0.28 0.25 0.22 0.21 0.21 0.21 0.24 0.30 0.31 0.25 0.18 0.12 0.09 0.06 0.05 0.04
0.00 0.00 0.00 0.00 0.00 0.00 0.00 0.00 0.01 0.01 0.01 0.02 0.04 0.06 0.09 0.14 0.19 0.26 0.32 0.35 0.37 0.37 0.37 0.37 0.37 0.36 0.31 0.25 0.21 0.19 0.18 0.19 0.19 0.23 0.27 0.28 0.23 0.15 0.09 0.07 0.05 0.04 0.04
0.00 0.00 0.00 0.00 0.00 0.00 0.00 0.00 0.00 0.01 0.01 0.02 0.03 0.04 0.06 0.09 0.11 0.16 0.21 0.26 0.29 0.32 0.34 0.36 0.35 0.32 0.27 0.21 0.17 0.14 0.16 0.16 0.14 0.18 0.25 0.27 0.20 0.14 0.09 0.06 0.05 0.04 0.04
0.00 0.00 0.00 0.00 0.00 0.00 0.00 0.00 0.00 0.00 0.01 0.01 0.02 0.02 0.04 0.05 0.08 0.12 0.14 0.17 0.19 0.23 0.27 0.32 0.32 0.23 0.15 0.11 0.11 0.10 0.08 0.06 0.05 0.08 0.18 0.23 0.17 0.12 0.12 0.09 0.05 0.04 0.05

GEFSGL_prec_meanprecacc_078.txt.gz
Total_Precipitation_Accumulation
0.28 0.26 0.24 0.22 0.18 0.15 0.13 0.12 0.11 0.10 0.09 0.08 0.08 0.08 0.08 0.08 0.07 0.08 0.09 0.09 0.09 0.08 0.08 0.09 0.08 0.09 0.10 0.10 0.10 0.12 0.14 0.21 0.24 0.12 0.06 0.06 0.13 0.21 0.28 0.31 0.32 0.31 0.27
0.19 0.17 0.15 0.12 0.11 0.10 0.09 0.08 0.08 0.07 0.07 0.08 0.08 0.08 0.07 0.06 0.07 0.08 0.08 0.08 0.08 0.08 0.07 0.08 0.08 0.08 0.09 0.09 0.10 0.11 0.14 0.20 0.29 0.24 0.13 0.09 0.12 0.19 0.26 0.28 0.24 0.23 0.25
0.13 0.10 0.09 0.08 0.08 0.07 0.07 0.07 0.06 0.07 0.08 0.08 0.07 0.06 0.06 0.07 0.08 0.07 0.07 0.06 0.06 0.06 0.07 0.08 0.09 0.10 0.09 0.11 0.14 0.15 0.18 0.22 0.30 0.33 0.21 0.16 0.17 0.24 0.35 0.34 0.30 0.37 0.31
0.08 0.07 0.07 0.07 0.07 0.08 0.08 0.09 0.08 0.09 0.09 0.08 0.08 0.07 0.07 0.07 0.06 0.04 0.03 0.04 0.04 0.05 0.06 0.09 0.10 0.11 0.13 0.18 0.19 0.22 0.27 0.31 0.32 0.35 0.28 0.21 0.23 0.29 0.40 0.48 0.44 0.42 0.38
0.09 0.09 0.09 0.09 0.09 0.10 0.11 0.12 0.11 0.11 0.09 0.09 0.08 0.07 0.06 0.04 0.02 0.01 0.01 0.01 0.03 0.04 0.06 0.09 0.11 0.11 0.16 0.19 0.19 0.24 0.32 0.38 0.40 0.42 0.36 0.30 0.28 0.37 0.47 0.51 0.48 0.45 0.38
0.13 0.14 0.14 0.14 0.15 0.16 0.16 0.15 0.15 0.13 0.11 0.08 0.05 0.04 0.03 0.02 0.01 0.01 0.01 0.01 0.02 0.05 0.09 0.10 0.08 0.07 0.08 0.09 0.14 0.21 0.30 0.39 0.46 0.51 0.48 0.44 0.37 0.44 0.54 0.58 0.58 0.57 0.45
0.22 0.21 0.20 0.19 0.19 0.18 0.16 0.14 0.12 0.10 0.08 0.07 0.05 0.04 0.05 0.03 0.00 0.00 0.00 0.01 0.04 0.09 0.12 0.12 0.09 0.08 0.12 0.17 0.17 0.17 0.25 0.33 0.46 0.59 0.61 0.52 0.49 0.53 0.67 0.71 0.66 0.65 0.59
0.26 0.25 0.23 0.20 0.18 0.15 0.12 0.10 0.08 0.07 0.07 0.06 0.05 0.05 0.07 0.04 0.00 0.00 0.00 0.01 0.06 0.09 0.10 0.12 0.15 0.18 0.16 0.13 0.14 0.22 0.32 0.42 0.48 0.54 0.60 0.55 0.52 0.54 0.63 0.67 0.64 0.62 0.51
0.26 0.21 0.16 0.12 0.10 0.08 0.07 0.06 0.06 0.06 0.06 0.05 0.04 0.05 0.08 0.07 0.01 0.00 0.00 0.02 0.05 0.07 0.09 0.11 0.12 0.17 0.13 0.12 0.19 0.31 0.39 0.52 0.60 0.73 0.72 0.67 0.66 0.65 0.56 0.53 0.63 0.71 0.62
0.15 0.11 0.07 0.05 0.05 0.05 0.05 0.06 0.06 0.06 0.06 0.05 0.05 0.06 0.08 0.09 0.02 0.00 0.01 0.03 0.05 0.06 0.09 0.14 0.13 0.10 0.11 0.15 0.22 0.38 0.54 0.62 0.79 0.99 0.94 0.87 0.81 0.77 0.66 0.58 0.71 0.82 0.77
0.08 0.05 0.03 0.02 0.02 0.03 0.05 0.07 0.08 0.08 0.08 0.07 0.08 0.09 0.08 0.05 0.03 0.00 0.01 0.03 0.05 0.07 0.12 0.18 0.21 0.16 0.16 0.18 0.29 0.47 0.65 0.68 0.87 1.12 1.00 0.82 0.73 0.66 0.64 0.66 0.71 0.74 0.71
0.06 0.05 0.03 0.02 0.02 0.02 0.07 0.10 0.10 0.10 0.10 0.10 0.09 0.08 0.07 0.07 0.05 0.01 0.00 0.01 0.04 0.10 0.22 0.25 0.27 0.25 0.22 0.27 0.40 0.58 0.72 0.86 1.00 1.09 0.90 0.70 0.59 0.56 0.56 0.53 0.51 0.52 0.54
0.07 0.07 0.05 0.04 0.03 0.03 0.07 0.10 0.11 0.11 0.08 0.07 0.07 0.07 0.07 0.09 0.08 0.02 0.01 0.02 0.05 0.12 0.26 0.33 0.33 0.30 0.37 0.55 0.67 0.78 0.90 1.04 1.06 0.93 0.78 0.66 0.54 0.49 0.46 0.44 0.42 0.44 0.47
0.08 0.06 0.05 0.07 0.07 0.07 0.09 0.07 0.08 0.08 0.06 0.06 0.08 0.08 0.10 0.12 0.09 0.05 0.05 0.07 0.10 0.15 0.23 0.37 0.46 0.49 0.62 0.82 0.95 1.03 1.10 1.11 0.96 0.84 0.73 0.62 0.50 0.45 0.43 0.39 0.39 0.41 0.43
0.07 0.05 0.05 0.06 0.07 0.12 0.12 0.06 0.04 0.05 0.02 0.03 0.06 0.08 0.12 0.13 0.08 0.06 0.09 0.11 0.14 0.19 0.23 0.37 0.52 0.59 0.73 0.88 0.99 1.04 1.06 1.05 0.96 0.83 0.72 0.60 0.52 0.47 0.44 0.38 0.38 0.39 0.42
0.07 0.06 0.04 0.04 0.05 0.07 0.12 0.13 0.04 0.01 0.00 0.01 0.03 0.05 0.07 0.09 0.07 0.06 0.08 0.12 0.17 0.23 0.29 0.46 0.59 0.63 0.72 0.82 0.91 0.99 0.97 0.92 0.84 0.79 0.73 0.66 0.57 0.50 0.47 0.42 0.38 0.38 0.42
0.04 0.05 0.03 0.02 0.03 0.05 0.08 0.15 0.17 0.10 0.03 0.02 0.02 0.03 0.05 0.06 0.07 0.06 0.07 0.11 0.16 0.24 0.35 0.53 0.66 0.72 0.77 0.81 0.82 0.85 0.90 0.88 0.80 0.73 0.68 0.62 0.54 0.48 0.44 0.41 0.37 0.36 0.36
0.02 0.02 0.02 0.02 0.02 0.03 0.05 0.07 0.11 0.16 0.16 0.13 0.07 0.04 0.04 0.07 0.09 0.09 0.10 0.12 0.17 0.24 0.39 0.55 0.66 0.72 0.77 0.79 0.77 0.73 0.76 0.78 0.71 0.63 0.58 0.53 0.48 0.44 0.40 0.37 0.33 0.27 0.27
0.01 0.02 0.02 0.01 0.01 0.01 0.02 0.04 0.06 0.10 0.13 0.14 0.13 0.08 0.07 0.10 0.13 0.14 0.15 0.16 0.22 0.27 0.37 0.50 0.60 0.65 0.66 0.66 0.67 0.65 0.65 0.67 0.63 0.57 0.53 0.49 0.45 0.39 0.36 0.30 0.25 0.18 0.21
0.01 0.00 0.00 0.01 0.01 0.01 0.01 0.03 0.05 0.09 0.10 0.11 0.11 0.09 0.11 0.20 0.27 0.25 0.21 0.20 0.22 0.26 0.34 0.45 0.54 0.56 0.55 0.51 0.49 0.49 0.50 0.50 0.50 0.48 0.47 0.45 0.41 0.35 0.29 0.24 0.21 0.21 0.22
0.01 0.01 0.00 0.00 0.00 0.00 0.01 0.01 0.03 0.06 0.08 0.10 0.09 0.08 0.15 0.22 0.31 0.31 0.29 0.29 0.29 0.30 0.32 0.36 0.42 0.45 0.44 0.40 0.36 0.34 0.34 0.37 0.38 0.38 0.39 0.38 0.33 0.29 0.23 0.18 0.16 0.13 0.13
0.01 0.01 0.00 0.00 0.00 0.00 0.00 0.01 0.01 0.03 0.05 0.08 0.09 0.09 0.16 0.20 0.27 0.32 0.34 0.35 0.37 0.36 0.33 0.33 0.34 0.36 0.35 0.33 0.30 0.27 0.26 0.27 0.28 0.31 0.33 0.32 0.28 0.23 0.17 0.12 0.09 0.08 0.07
0.00 0.01 0.01 0.00 0.00 0.00 0.01 0.01 0.01 0.02 0.03 0.05 0.07 0.10 0.14 0.21 0.27 0.33 0.39 0.38 0.37 0.37 0.33 0.29 0.32 0.35 0.32 0.28 0.25 0.22 0.21 0.21 0.21 0.24 0.31 0.32 0.26 0.19 0.13 0.09 0.06 0.05 0.04
0.00 0.00 0.00 0.00 0.00 0.00 0.01 0.01 0.01 0.01 0.01 0.03 0.05 0.07 0.11 0.17 0.22 0.27 0.33 0.36 0.37 0.37 0.37 0.37 0.37 0.36 0.31 0.25 0.21 0.19 0.18 0.19 0.19 0.23 0.27 0.29 0.24 0.16 0.10 0.07 0.05 0.04 0.04
0.00 0.00 0.00 0.00 0.00 0.00 0.00 0.00 0.00 0.01 0.01 0.02 0.03 0.05 0.08 0.11 0.13 0.16 0.21 0.26 0.29 0.32 0.34 0.36 0.35 0.32 0.27 0.21 0.17 0.14 0.16 0.16 0.14 0.18 0.25 0.28 0.21 0.14 0.09 0.06 0.05 0.04 0.04
0.00 0.00 0.00 0.00 0.00 0.00 0.00 0.00 0.00 0.01 0.01 0.01 0.02 0.03 0.05 0.07 0.09 0.12 0.14 0.17 0.19 0.23 0.27 0.32 0.32 0.23 0.15 0.11 0.11 0.10 0.08 0.06 0.05 0.08 0.18 0.23 0.17 0.12 0.12 0.09 0.05 0.04 0.05

GEFSGL_prec_meanprecacc_084.txt.gz
Total_Precipitation_Accumulation
0.32 0.30 0.28 0.26 0.22 0.18 0.15 0.14 0.12 0.11 0.10 0.09 0.09 0.09 0.09 0.08 0.08 0.09 0.10 0.10 0.09 0.08 0.08 0.09 0.08 0.09 0.10 0.10 0.10 0.12 0.14 0.21 0.25 0.13 0.06 0.07 0.13 0.21 0.29 0.31 0.32 0.31 0.27
0.22 0.20 0.17 0.15 0.13 0.11 0.10 0.09 0.08 0.08 0.08 0.08 0.09 0.08 0.07 0.07 0.07 0.09 0.09 0.08 0.08 0.08 0.07 0.08 0.08 0.08 0.09 0.09 0.10 0.11 0.14 0.20 0.29 0.24 0.13 0.09 0.12 0.19 0.26 0.28 0.24 0.23 0.26
0.15 0.12 0.10 0.09 0.08 0.08 0.08 0.08 0.07 0.07 0.08 0.08 0.07 0.07 0.06 0.07 0.08 0.07 0.07 0.06 0.06 0.06 0.07 0.08 0.09 0.10 0.09 0.11 0.14 0.15 0.18 0.22 0.30 0.33 0.21 0.16 0.17 0.24 0.35 0.35 0.30 0.37 0.31
0.10 0.08 0.08 0.08 0.08 0.08 0.09 0.09 0.09 0.09 0.09 0.08 0.08 0.07 0.07 0.07 0.06 0.04 0.03 0.04 0.04 0.05 0.06 0.09 0.10 0.11 0.13 0.18 0.19 0.22 0.27 0.31 0.32 0.35 0.28 0.21 0.23 0.29 0.41 0.48 0.44 0.42 0.38
0.10 0.09 0.09 0.09 0.10 0.11 0.12 0.12 0.12 0.11 0.10 0.09 0.08 0.07 0.06 0.04 0.02 0.01 0.01 0.01 0.03 0.04 0.06 0.09 0.11 0.11 0.16 0.19 0.19 0.24 0.32 0.38 0.40 0.42 0.36 0.30 0.28 0.37 0.47 0.51 0.48 0.45 0.38
0.14 0.15 0.15 0.15 0.15 0.16 0.16 0.15 0.15 0.13 0.11 0.08 0.05 0.04 0.03 0.02 0.01 0.01 0.01 0.01 0.02 0.05 0.09 0.10 0.08 0.07 0.08 0.09 0.14 0.21 0.30 0.39 0.46 0.51 0.48 0.44 0.37 0.44 0.55 0.58 0.58 0.57 0.45
0.24 0.22 0.20 0.19 0.19 0.19 0.16 0.14 0.13 0.10 0.08 0.07 0.05 0.04 0.05 0.03 0.00 0.00 0.00 0.01 0.04 0.09 0.12 0.12 0.09 0.08 0.12 0.17 0.17 0.17 0.25 0.33 0.46 0.59 0.61 0.52 0.49 0.54 0.67 0.71 0.66 0.65 0.59
0.27 0.25 0.23 0.20 0.19 0.16 0.12 0.11 0.09 0.07 0.07 0.06 0.05 0.05 0.07 0.04 0.00 0.00 0.00 0.01 0.06 0.09 0.10 0.12 0.15 0.18 0.16 0.13 0.14 0.22 0.32 0.42 0.48 0.54 0.61 0.55 0.53 0.55 0.63 0.67 0.64 0.62 0.51
0.26 0.21 0.16 0.12 0.10 0.08 0.07 0.06 0.06 0.06 0.06 0.05 0.04 0.05 0.08 0.07 0.01 0.00 0.00 0.02 0.05 0.07 0.09 0.11 0.12 0.17 0.13 0.12 0.19 0.31 0.39 0.52 0.60 0.73 0.73 0.67 0.66 0.65 0.56 0.53 0.63 0.71 0.62
0.16 0.11 0.07 0.05 0.05 0.05 0.05 0.06 0.06 0.07 0.06 0.05 0.05 0.06 0.08 0.09 0.02 0.00 0.01 0.03 0.05 0.06 0.10 0.14 0.13 0.11 0.11 0.15 0.22 0.38 0.54 0.62 0.79 0.99 0.94 0.87 0.82 0.78 0.66 0.59 0.71 0.82 0.78
0.08 0.05 0.03 0.02 0.03 0.03 0.05 0.07 0.08 0.08 0.09 0.07 0.08 0.09 0.08 0.05 0.03 0.00 0.01 0.03 0.05 0.07 0.12 0.18 0.22 0.16 0.16 0.18 0.29 0.47 0.65 0.68 0.87 1.12 1.01 0.82 0.74 0.66 0.65 0.66 0.71 0.74 0.71
0.06 0.05 0.03 0.02 0.02 0.02 0.07 0.10 0.10 0.11 0.11 0.10 0.10 0.09 0.07 0.07 0.05 0.01 0.00 0.01 0.04 0.10 0.22 0.25 0.27 0.25 0.22 0.27 0.40 0.59 0.73 0.86 1.00 1.09 0.91 0.71 0.60 0.57 0.56 0.54 0.52 0.52 0.54
0.08 0.07 0.05 0.04 0.04 0.03 0.07 0.10 0.11 0.11 0.08 0.07 0.07 0.07 0.07 0.09 0.08 0.02 0.01 0.02 0.05 0.12 0.26 0.33 0.33 0.30 0.37 0.55 0.67 0.78 0.90 1.04 1.07 0.94 0.78 0.67 0.55 0.49 0.46 0.45 0.43 0.45 0.48
0.08 0.06 0.06 0.07 0.08 0.08 0.09 0.07 0.08 0.08 0.06 0.06 0.08 0.08 0.10 0.12 0.09 0.05 0.05 0.07 0.10 0.15 0.23 0.38 0.46 0.49 0.63 0.83 0.96 1.04 1.11 1.12 0.97 0.85 0.73 0.62 0.50 0.45 0.43 0.39 0.39 0.41 0.43
0.07 0.06 0.06 0.06 0.08 0.13 0.13 0.06 0.04 0.05 0.02 0.03 0.06 0.08 0.12 0.13 0.08 0.06 0.09 0.11 0.14 0.19 0.23 0.37 0.52 0.59 0.74 0.90 1.01 1.05 1.07 1.06 0.97 0.84 0.72 0.61 0.52 0.47 0.44 0.39 0.38 0.39 0.42
0.08 0.06 0.04 0.04 0.05 0.08 0.13 0.14 0.05 0.01 0.00 0.01 0.03 0.05 0.07 0.09 0.07 0.06 0.08 0.12 0.17 0.23 0.29 0.46 0.59 0.63 0.72 0.82 0.91 0.99 0.97 0.92 0.84 0.79 0.73 0.66 0.58 0.50 0.47 0.42 0.38 0.39 0.42
0.05 0.05 0.03 0.02 0.04 0.05 0.09 0.15 0.17 0.10 0.03 0.02 0.02 0.03 0.05 0.06 0.07 0.06 0.07 0.11 0.16 0.24 0.35 0.54 0.66 0.72 0.77 0.81 0.82 0.85 0.90 0.88 0.80 0.74 0.68 0.62 0.54 0.48 0.45 0.42 0.37 0.36 0.36
0.02 0.02 0.02 0.03 0.02 0.03 0.05 0.07 0.12 0.16 0.16 0.13 0.07 0.04 0.04 0.07 0.09 0.09 0.10 0.12 0.17 0.25 0.39 0.55 0.66 0.72 0.77 0.79 0.77 0.73 0.76 0.78 0.71 0.63 0.58 0.53 0.49 0.45 0.41 0.38 0.34 0.27 0.27
0.02 0.03 0.02 0.02 0.02 0.02 0.03 0.04 0.07 0.10 0.13 0.14 0.13 0.08 0.07 0.10 0.13 0.14 0.15 0.17 0.22 0.28 0.37 0.50 0.60 0.65 0.66 0.66 0.67 0.65 0.65 0.67 0.63 0.57 0.53 0.49 0.45 0.40 0.37 0.30 0.25 0.18 0.21
0.01 0.00 0.01 0.01 0.01 0.01 0.01 0.03 0.06 0.10 0.11 0.11 0.11 0.09 0.11 0.20 0.27 0.25 0.21 0.20 0.22 0.26 0.34 0.45 0.54 0.56 0.55 0.51 0.49 0.49 0.50 0.50 0.50 0.48 0.47 0.45 0.41 0.36 0.29 0.24 0.21 0.21 0.22
0.01 0.01 0.00 0.00 0.00 0.00 0.01 0.01 0.03 0.06 0.08 0.10 0.09 0.08 0.15 0.22 0.31 0.31 0.29 0.29 0.29 0.30 0.32 0.36 0.42 0.45 0.44 0.40 0.36 0.34 0.34 0.37 0.38 0.38 0.39 0.38 0.33 0.29 0.23 0.18 0.16 0.13 0.13
0.01 0.01 0.00 0.00 0.00 0.00 0.00 0.01 0.01 0.03 0.05 0.08 0.09 0.09 0.16 0.21 0.27 0.32 0.34 0.35 0.37 0.36 0.33 0.33 0.34 0.36 0.35 0.33 0.30 0.27 0.26 0.27 0.28 0.31 0.33 0.32 0.28 0.23 0.17 0.12 0.09 0.08 0.07
0.00 0.01 0.01 0.00 0.00 0.00 0.01 0.01 0.01 0.02 0.03 0.05 0.07 0.10 0.14 0.21 0.27 0.34 0.39 0.38 0.37 0.37 0.33 0.29 0.32 0.35 0.32 0.28 0.25 0.22 0.21 0.21 0.21 0.24 0.31 0.32 0.26 0.19 0.13 0.09 0.06 0.05 0.04
0.00 0.00 0.00 0.00 0.00 0.00 0.01 0.01 0.01 0.01 0.01 0.03 0.05 0.07 0.11 0.17 0.22 0.27 0.33 0.36 0.37 0.37 0.37 0.37 0.37 0.36 0.31 0.25 0.21 0.19 0.18 0.19 0.19 0.23 0.27 0.29 0.24 0.16 0.10 0.07 0.05 0.04 0.04
0.00 0.00 0.00 0.00 0.00 0.00 0.00 0.00 0.00 0.01 0.01 0.02 0.03 0.05 0.08 0.11 0.13 0.16 0.21 0.26 0.29 0.32 0.34 0.36 0.35 0.32 0.27 0.21 0.17 0.14 0.16 0.16 0.14 0.18 0.25 0.28 0.21 0.14 0.09 0.06 0.05 0.04 0.04
0.00 0.00 0.00 0.00 0.00 0.00 0.00 0.00 0.01 0.01 0.01 0.01 0.02 0.03 0.05 0.07 0.09 0.12 0.14 0.17 0.19 0.23 0.27 0.32 0.32 0.23 0.15 0.11 0.11 0.10 0.08 0.06 0.05 0.08 0.18 0.23 0.17 0.12 0.12 0.09 0.05 0.04 0.05

GEFSGL_prec_meanprecacc_090.txt.gz
Total_Precipitation_Accumulation
0.46 0.43 0.39 0.36 0.31 0.29 0.23 0.19 0.15 0.12 0.11 0.10 0.09 0.09 0.09 0.09 0.08 0.09 0.10 0.10 0.09 0.09 0.08 0.09 0.09 0.09 0.10 0.10 0.10 0.12 0.14 0.21 0.25 0.13 0.06 0.07 0.14 0.22 0.29 0.32 0.32 0.31 0.27
0.32 0.31 0.28 0.23 0.20 0.17 0.13 0.11 0.09 0.09 0.09 0.09 0.09 0.09 0.08 0.07 0.08 0.09 0.09 0.09 0.09 0.09 0.08 0.08 0.08 0.08 0.09 0.09 0.10 0.11 0.14 0.20 0.29 0.24 0.13 0.09 0.12 0.19 0.26 0.28 0.24 0.23 0.26
0.19 0.17 0.16 0.13 0.11 0.10 0.09 0.09 0.08 0.08 0.09 0.09 0.08 0.07 0.07 0.07 0.08 0.08 0.07 0.06 0.06 0.07 0.07 0.08 0.09 0.10 0.09 0.11 0.14 0.15 0.18 0.22 0.30 0.33 0.21 0.16 0.17 0.24 0.35 0.35 0.30 0.38 0.31
0.13 0.11 0.11 0.10 0.09 0.09 0.09 0.09 0.09 0.09 0.10 0.09 0.08 0.07 0.07 0.07 0.06 0.04 0.04 0.04 0.04 0.05 0.06 0.09 0.10 0.11 0.13 0.18 0.19 0.22 0.27 0.31 0.32 0.35 0.28 0.21 0.23 0.29 0.41 0.48 0.44 0.42 0.38
0.13 0.12 0.11 0.11 0.10 0.11 0.12 0.12 0.12 0.11 0.10 0.09 0.08 0.07 0.06 0.04 0.02 0.01 0.01 0.01 0.03 0.04 0.06 0.09 0.11 0.11 0.16 0.19 0.19 0.24 0.32 0.38 0.40 0.42 0.36 0.30 0.28 0.37 0.47 0.51 0.48 0.45 0.38
0.16 0.17 0.16 0.15 0.16 0.16 0.16 0.15 0.15 0.13 0.11 0.08 0.05 0.04 0.03 0.02 0.01 0.01 0.01 0.01 0.02 0.05 0.09 0.10 0.08 0.07 0.08 0.09 0.14 0.21 0.30 0.39 0.46 0.51 0.48 0.44 0.37 0.44 0.55 0.58 0.59 0.57 0.45
0.25 0.23 0.21 0.19 0.20 0.19 0.16 0.14 0.13 0.10 0.08 0.07 0.05 0.04 0.05 0.03 0.00 0.00 0.00 0.01 0.04 0.09 0.12 0.12 0.09 0.08 0.12 0.17 0.17 0.17 0.25 0.33 0.46 0.59 0.61 0.52 0.49 0.54 0.67 0.72 0.66 0.65 0.60
0.28 0.26 0.23 0.20 0.19 0.16 0.12 0.11 0.09 0.07 0.07 0.06 0.05 0.05 0.07 0.04 0.00 0.00 0.00 0.01 0.06 0.09 0.10 0.12 0.15 0.18 0.16 0.13 0.14 0.22 0.32 0.42 0.48 0.54 0.61 0.55 0.53 0.55 0.63 0.67 0.64 0.62 0.51
0.27 0.22 0.17 0.12 0.11 0.08 0.07 0.06 0.06 0.06 0.06 0.05 0.04 0.05 0.08 0.07 0.01 0.00 0.00 0.02 0.05 0.07 0.09 0.11 0.12 0.17 0.13 0.12 0.19 0.31 0.39 0.52 0.60 0.73 0.73 0.67 0.66 0.65 0.56 0.53 0.63 0.71 0.62
0.16 0.11 0.07 0.05 0.05 0.05 0.05 0.06 0.06 0.07 0.06 0.05 0.05 0.06 0.08 0.09 0.02 0.00 0.01 0.03 0.05 0.06 0.10 0.14 0.13 0.11 0.11 0.15 0.22 0.38 0.54 0.62 0.79 0.99 0.94 0.87 0.82 0.78 0.66 0.59 0.71 0.83 0.78
0.08 0.05 0.03 0.02 0.03 0.03 0.05 0.07 0.08 0.08 0.09 0.08 0.08 0.09 0.09 0.06 0.03 0.00 0.01 0.03 0.05 0.07 0.12 0.18 0.22 0.16 0.16 0.18 0.29 0.47 0.65 0.68 0.87 1.12 1.01 0.83 0.74 0.67 0.65 0.66 0.71 0.75 0.71
0.06 0.05 0.03 0.02 0.02 0.03 0.07 0.10 0.10 0.11 0.11 0.10 0.10 0.09 0.07 0.07 0.05 0.01 0.00 0.01 0.04 0.10 0.22 0.25 0.27 0.25 0.22 0.27 0.40 0.59 0.73 0.87 1.01 1.09 0.91 0.71 0.60 0.57 0.57 0.54 0.52 0.52 0.54
0.08 0.07 0.05 0.04 0.04 0.03 0.07 0.10 0.11 0.11 0.08 0.07 0.07 0.07 0.07 0.09 0.08 0.02 0.01 0.02 0.05 0.12 0.26 0.33 0.33 0.30 0.37 0.55 0.68 0.79 0.91 1.05 1.07 0.94 0.78 0.67 0.55 0.49 0.46 0.45 0.43 0.45 0.48
0.08 0.06 0.06 0.07 0.08 0.08 0.09 0.07 0.08 0.08 0.06 0.06 0.08 0.08 0.10 0.12 0.09 0.05 0.05 0.07 0.10 0.15 0.23 0.38 0.46 0.50 0.63 0.83 0.96 1.05 1.11 1.12 0.97 0.85 0.73 0.62 0.51 0.45 0.43 0.39 0.39 0.41 0.43
0.07 0.06 0.06 0.06 0.08 0.13 0.13 0.06 0.04 0.05 0.02 0.03 0.06 0.08 0.12 0.13 0.08 0.06 0.09 0.11 0.14 0.19 0.23 0.37 0.52 0.59 0.74 0.90 1.01 1.05 1.07 1.06 0.97 0.84 0.72 0.61 0.52 0.47 0.44 0.39 0.38 0.39 0.42
0.08 0.06 0.04 0.04 0.06 0.08 0.13 0.14 0.05 0.01 0.00 0.01 0.03 0.05 0.07 0.09 0.07 0.06 0.08 0.12 0.17 0.23 0.29 0.46 0.59 0.63 0.72 0.82 0.91 0.99 0.97 0.92 0.84 0.79 0.73 0.66 0.58 0.50 0.47 0.42 0.38 0.39 0.42
0.05 0.05 0.03 0.02 0.04 0.05 0.09 0.15 0.17 0.10 0.03 0.02 0.02 0.03 0.05 0.06 0.07 0.06 0.07 0.12 0.16 0.24 0.35 0.54 0.66 0.72 0.77 0.81 0.82 0.85 0.90 0.88 0.80 0.74 0.68 0.62 0.54 0.48 0.45 0.42 0.37 0.36 0.36
0.03 0.02 0.02 0.03 0.02 0.03 0.05 0.07 0.12 0.16 0.16 0.13 0.07 0.04 0.04 0.07 0.09 0.09 0.10 0.12 0.17 0.25 0.39 0.55 0.66 0.72 0.77 0.79 0.77 0.73 0.76 0.78 0.72 0.63 0.58 0.53 0.49 0.45 0.41 0.38 0.34 0.27 0.27
0.02 0.03 0.02 0.02 0.02 0.02 0.03 0.04 0.07 0.10 0.13 0.14 0.13 0.08 0.07 0.10 0.13 0.14 0.15 0.17 0.22 0.28 0.37 0.50 0.60 0.65 0.66 0.66 0.67 0.65 0.65 0.67 0.63 0.57 0.53 0.49 0.45 0.40 0.37 0.30 0.25 0.18 0.21
0.02 0.01 0.01 0.01 0.01 0.01 0.01 0.03 0.06 0.10 0.11 0.11 0.11 0.09 0.11 0.20 0.27 0.25 0.21 0.20 0.22 0.26 0.34 0.45 0.54 0.56 0.55 0.51 0.49 0.49 0.50 0.50 0.50 0.48 0.47 0.45 0.41 0.36 0.29 0.24 0.21 0.21 0.22
0.01 0.01 0.00 0.00 0.00 0.00 0.01 0.01 0.03 0.06 0.08 0.10 0.09 0.08 0.15 0.22 0.31 0.31 0.29 0.29 0.29 0.30 0.32 0.36 0.42 0.45 0.44 0.40 0.36 0.34 0.34 0.37 0.38 0.38 0.39 0.38 0.33 0.29 0.23 0.18 0.16 0.13 0.13
0.01 0.01 0.00 0.00 0.00 0.00 0.00 0.01 0.01 0.03 0.05 0.08 0.09 0.09 0.16 0.21 0.27 0.32 0.34 0.35 0.37 0.36 0.33 0.33 0.34 0.36 0.35 0.33 0.30 0.27 0.26 0.27 0.28 0.31 0.33 0.32 0.28 0.23 0.17 0.12 0.09 0.08 0.07
0.00 0.01 0.01 0.00 0.00 0.00 0.01 0.01 0.01 0.02 0.03 0.05 0.07 0.10 0.14 0.21 0.27 0.34 0.39 0.38 0.37 0.37 0.33 0.29 0.32 0.35 0.32 0.28 0.25 0.22 0.21 0.21 0.21 0.24 0.31 0.32 0.26 0.19 0.13 0.09 0.06 0.05 0.04
0.00 0.00 0.00 0.00 0.00 0.00 0.01 0.01 0.01 0.01 0.01 0.03 0.05 0.07 0.11 0.17 0.22 0.27 0.33 0.36 0.37 0.37 0.37 0.37 0.37 0.36 0.31 0.25 0.21 0.19 0.18 0.19 0.19 0.23 0.27 0.29 0.24 0.16 0.10 0.07 0.05 0.04 0.04
0.00 0.00 0.00 0.00 0.00 0.00 0.00 0.00 0.00 0.01 0.01 0.02 0.03 0.05 0.08 0.11 0.13 0.16 0.21 0.26 0.29 0.32 0.34 0.36 0.35 0.32 0.27 0.21 0.17 0.14 0.16 0.16 0.14 0.18 0.25 0.28 0.21 0.14 0.09 0.06 0.05 0.04 0.04
0.00 0.00 0.00 0.00 0.00 0.00 0.00 0.00 0.01 0.01 0.01 0.01 0.02 0.03 0.05 0.07 0.09 0.12 0.14 0.17 0.19 0.23 0.27 0.32 0.32 0.23 0.15 0.11 0.11 0.10 0.08 0.06 0.05 0.08 0.18 0.23 0.17 0.12 0.12 0.09 0.05 0.04 0.05

GEFSGL_prec_meanprecacc_096.txt.gz
Total_Precipitation_Accumulation
0.58 0.56 0.54 0.51 0.48 0.46 0.41 0.36 0.29 0.23 0.19 0.16 0.14 0.12 0.11 0.10 0.09 0.10 0.11 0.10 0.10 0.09 0.09 0.09 0.09 0.09 0.10 0.10 0.11 0.12 0.14 0.21 0.25 0.13 0.07 0.07 0.14 0.22 0.30 0.33 0.33 0.31 0.28
0.39 0.41 0.40 0.34 0.32 0.31 0.28 0.26 0.23 0.19 0.15 0.14 0.13 0.11 0.09 0.08 0.08 0.09 0.10 0.09 0.10 0.09 0.08 0.08 0.08 0.08 0.09 0.09 0.10 0.12 0.14 0.20 0.29 0.25 0.13 0.09 0.13 0.19 0.26 0.29 0.25 0.24 0.26
0.24 0.23 0.23 0.22 0.19 0.18 0.16 0.15 0.13 0.12 0.12 0.11 0.09 0.09 0.08 0.08 0.09 0.08 0.08 0.07 0.07 0.07 0.08 0.08 0.09 0.10 0.10 0.11 0.14 0.15 0.18 0.22 0.30 0.33 0.21 0.16 0.17 0.24 0.35 0.35 0.30 0.38 0.31
0.17 0.15 0.16 0.15 0.15 0.13 0.12 0.12 0.11 0.11 0.11 0.10 0.09 0.08 0.07 0.08 0.07 0.05 0.04 0.04 0.05 0.05 0.06 0.09 0.11 0.12 0.14 0.18 0.19 0.23 0.28 0.31 0.32 0.35 0.28 0.22 0.24 0.29 0.41 0.48 0.45 0.42 0.38
0.18 0.16 0.16 0.15 0.14 0.14 0.14 0.14 0.13 0.12 0.11 0.10 0.09 0.07 0.06 0.05 0.02 0.01 0.01 0.02 0.03 0.04 0.06 0.10 0.11 0.11 0.16 0.19 0.19 0.24 0.32 0.39 0.41 0.43 0.37 0.31 0.29 0.38 0.47 0.51 0.49 0.46 0.39
0.20 0.20 0.20 0.19 0.19 0.19 0.18 0.17 0.16 0.14 0.12 0.08 0.06 0.04 0.03 0.02 0.01 0.01 0.01 0.01 0.03 0.06 0.09 0.11 0.09 0.08 0.09 0.09 0.14 0.21 0.30 0.39 0.47 0.52 0.50 0.46 0.39 0.45 0.56 0.59 0.59 0.58 0.46
0.27 0.25 0.23 0.21 0.21 0.21 0.17 0.15 0.13 0.11 0.09 0.07 0.05 0.04 0.05 0.03 0.00 0.00 0.00 0.01 0.04 0.09 0.13 0.12 0.09 0.08 0.12 0.17 0.17 0.18 0.26 0.33 0.46 0.60 0.63 0.55 0.52 0.56 0.69 0.73 0.68 0.67 0.61
0.30 0.27 0.24 0.21 0.20 0.17 0.13 0.12 0.09 0.08 0.08 0.07 0.06 0.05 0.07 0.04 0.00 0.00 0.00 0.02 0.07 0.10 0.11 0.13 0.16 0.20 0.16 0.14 0.14 0.22 0.33 0.43 0.49 0.54 0.62 0.57 0.54 0.56 0.64 0.68 0.65 0.63 0.53
0.30 0.24 0.18 0.13 0.12 0.10 0.09 0.08 0.07 0.07 0.08 0.06 0.05 0.06 0.09 0.07 0.01 0.00 0.00 0.03 0.06 0.08 0.09 0.11 0.13 0.18 0.13 0.12 0.19 0.32 0.41 0.54 0.60 0.73 0.73 0.67 0.66 0.65 0.56 0.53 0.65 0.73 0.65
0.19 0.13 0.09 0.06 0.06 0.06 0.06 0.07 0.07 0.08 0.08 0.06 0.06 0.07 0.09 0.09 0.02 0.00 0.01 0.03 0.06 0.07 0.11 0.15 0.13 0.11 0.11 0.15 0.23 0.40 0.56 0.64 0.80 1.00 0.95 0.89 0.83 0.79 0.67 0.60 0.74 0.85 0.81
0.09 0.07 0.05 0.03 0.03 0.04 0.06 0.09 0.10 0.10 0.10 0.09 0.09 0.10 0.09 0.06 0.03 0.00 0.01 0.03 0.06 0.08 0.14 0.19 0.22 0.16 0.16 0.18 0.29 0.48 0.66 0.69 0.88 1.13 1.02 0.85 0.77 0.70 0.68 0.69 0.73 0.77 0.75
0.07 0.06 0.05 0.03 0.02 0.03 0.08 0.12 0.11 0.12 0.12 0.12 0.11 0.10 0.08 0.08 0.05 0.01 0.00 0.01 0.04 0.11 0.24 0.26 0.27 0.25 0.22 0.27 0.40 0.59 0.73 0.87 1.02 1.11 0.93 0.73 0.61 0.59 0.59 0.55 0.53 0.54 0.57
0.09 0.08 0.07 0.05 0.04 0.04 0.08 0.12 0.12 0.12 0.10 0.09 0.09 0.08 0.08 0.10 0.08 0.02 0.01 0.02 0.05 0.13 0.27 0.33 0.33 0.30 0.37 0.55 0.68 0.79 0.91 1.05 1.08 0.95 0.80 0.69 0.56 0.50 0.47 0.47 0.45 0.47 0.50
0.10 0.08 0.07 0.09 0.09 0.09 0.10 0.08 0.09 0.10 0.07 0.07 0.08 0.09 0.12 0.13 0.09 0.05 0.05 0.07 0.10 0.15 0.24 0.38 0.47 0.50 0.64 0.83 0.97 1.05 1.12 1.13 0.98 0.86 0.74 0.64 0.52 0.46 0.45 0.40 0.42 0.44 0.46
0.09 0.07 0.07 0.08 0.10 0.15 0.14 0.07 0.05 0.05 0.02 0.03 0.06 0.08 0.13 0.14 0.08 0.06 0.09 0.11 0.14 0.19 0.24 0.38 0.54 0.60 0.75 0.90 1.01 1.05 1.07 1.06 0.97 0.84 0.73 0.62 0.54 0.48 0.46 0.40 0.39 0.41 0.43
0.10 0.09 0.05 0.05 0.07 0.10 0.14 0.14 0.05 0.01 0.00 0.01 0.03 0.05 0.07 0.09 0.07 0.06 0.08 0.12 0.17 0.23 0.29 0.48 0.60 0.64 0.73 0.82 0.91 0.99 0.97 0.92 0.85 0.79 0.74 0.67 0.59 0.51 0.48 0.43 0.40 0.40 0.43
0.06 0.06 0.04 0.03 0.04 0.06 0.10 0.17 0.19 0.10 0.03 0.02 0.02 0.03 0.05 0.06 0.07 0.06 0.07 0.12 0.16 0.24 0.36 0.55 0.67 0.73 0.77 0.81 0.82 0.85 0.90 0.89 0.80 0.74 0.69 0.63 0.55 0.49 0.45 0.43 0.38 0.36 0.37
0.03 0.03 0.02 0.03 0.03 0.04 0.06 0.08 0.12 0.18 0.18 0.14 0.07 0.04 0.04 0.07 0.09 0.09 0.10 0.12 0.19 0.25 0.40 0.56 0.66 0.72 0.77 0.79 0.77 0.73 0.76 0.78 0.72 0.63 0.58 0.53 0.49 0.46 0.41 0.38 0.34 0.28 0.27
0.02 0.03 0.02 0.02 0.02 0.02 0.03 0.05 0.07 0.11 0.15 0.16 0.14 0.09 0.07 0.10 0.13 0.14 0.16 0.18 0.23 0.28 0.37 0.50 0.60 0.65 0.66 0.66 0.67 0.65 0.65 0.67 0.63 0.57 0.53 0.49 0.45 0.40 0.37 0.30 0.26 0.18 0.21
0.02 0.01 0.01 0.01 0.01 0.01 0.02 0.03 0.06 0.10 0.11 0.12 0.13 0.11 0.11 0.21 0.29 0.27 0.22 0.21 0.22 0.26 0.34 0.45 0.54 0.56 0.55 0.51 0.49 0.49 0.50 0.50 0.50 0.48 0.47 0.45 0.41 0.36 0.29 0.24 0.21 0.21 0.22
0.02 0.01 0.00 0.00 0.00 0.00 0.01 0.01 0.03 0.07 0.09 0.11 0.09 0.08 0.15 0.24 0.34 0.33 0.29 0.29 0.29 0.30 0.32 0.36 0.42 0.45 0.44 0.40 0.36 0.34 0.34 0.37 0.38 0.38 0.39 0.38 0.33 0.29 0.23 0.18 0.16 0.13 0.13
0.01 0.01 0.00 0.00 0.00 0.00 0.00 0.01 0.02 0.03 0.05 0.09 0.10 0.09 0.16 0.22 0.28 0.32 0.34 0.35 0.37 0.36 0.33 0.33 0.34 0.36 0.35 0.33 0.30 0.27 0.26 0.27 0.28 0.31 0.33 0.32 0.28 0.23 0.17 0.12 0.09 0.08 0.07
0.00 0.01 0.01 0.00 0.00 0.00 0.01 0.01 0.02 0.02 0.03 0.05 0.07 0.10 0.15 0.22 0.28 0.34 0.39 0.38 0.37 0.37 0.33 0.29 0.32 0.35 0.32 0.28 0.25 0.22 0.21 0.21 0.21 0.24 0.31 0.32 0.26 0.19 0.13 0.09 0.06 0.05 0.04
0.00 0.00 0.00 0.00 0.00 0.00 0.01 0.01 0.01 0.01 0.01 0.03 0.05 0.08 0.12 0.17 0.22 0.27 0.33 0.36 0.37 0.37 0.37 0.37 0.37 0.36 0.31 0.25 0.21 0.19 0.18 0.19 0.19 0.23 0.27 0.29 0.24 0.16 0.10 0.07 0.05 0.04 0.04
0.00 0.00 0.00 0.00 0.00 0.00 0.00 0.00 0.00 0.01 0.01 0.02 0.03 0.05 0.08 0.11 0.13 0.16 0.21 0.26 0.29 0.32 0.34 0.36 0.35 0.32 0.27 0.21 0.17 0.14 0.16 0.16 0.14 0.18 0.25 0.28 0.21 0.14 0.09 0.06 0.05 0.04 0.04
0.00 0.00 0.00 0.00 0.00 0.00 0.00 0.00 0.01 0.01 0.01 0.01 0.02 0.03 0.05 0.07 0.09 0.12 0.14 0.17 0.19 0.23 0.27 0.32 0.32 0.23 0.15 0.11 0.11 0.10 0.08 0.06 0.05 0.08 0.18 0.23 0.17 0.12 0.12 0.09 0.05 0.04 0.05

GEFSGL_prec_meanprecacc_102.txt.gz
Total_Precipitation_Accumulation
0.67 0.65 0.63 0.61 0.58 0.55 0.51 0.48 0.41 0.34 0.29 0.26 0.24 0.21 0.19 0.17 0.16 0.16 0.16 0.14 0.13 0.11 0.10 0.10 0.10 0.09 0.10 0.10 0.11 0.12 0.15 0.22 0.26 0.14 0.07 0.08 0.15 0.23 0.30 0.33 0.34 0.32 0.28
0.51 0.52 0.50 0.46 0.42 0.40 0.37 0.37 0.36 0.32 0.27 0.25 0.24 0.22 0.19 0.17 0.16 0.15 0.14 0.13 0.12 0.11 0.10 0.10 0.09 0.09 0.10 0.09 0.11 0.12 0.14 0.21 0.29 0.25 0.14 0.10 0.13 0.20 0.26 0.29 0.25 0.24 0.27
0.33 0.31 0.31 0.30 0.27 0.26 0.23 0.24 0.24 0.24 0.23 0.21 0.19 0.19 0.19 0.18 0.17 0.15 0.12 0.10 0.10 0.09 0.09 0.10 0.10 0.11 0.10 0.12 0.14 0.16 0.19 0.22 0.31 0.33 0.22 0.17 0.18 0.25 0.36 0.35 0.30 0.38 0.31
0.23 0.20 0.21 0.20 0.20 0.19 0.18 0.18 0.18 0.18 0.18 0.16 0.15 0.14 0.14 0.13 0.12 0.09 0.07 0.06 0.06 0.06 0.07 0.10 0.12 0.13 0.15 0.19 0.20 0.24 0.29 0.32 0.33 0.36 0.29 0.23 0.26 0.30 0.43 0.50 0.46 0.43 0.38
0.25 0.22 0.21 0.19 0.19 0.19 0.19 0.19 0.18 0.17 0.15 0.14 0.13 0.12 0.09 0.07 0.04 0.02 0.02 0.03 0.04 0.06 0.07 0.10 0.11 0.12 0.17 0.19 0.20 0.25 0.33 0.40 0.42 0.45 0.40 0.34 0.33 0.42 0.50 0.53 0.50 0.47 0.41
0.26 0.27 0.26 0.25 0.24 0.24 0.23 0.21 0.20 0.17 0.15 0.12 0.09 0.07 0.05 0.03 0.02 0.02 0.01 0.02 0.04 0.08 0.11 0.12 0.09 0.08 0.09 0.10 0.14 0.21 0.31 0.40 0.48 0.55 0.53 0.51 0.45 0.50 0.59 0.61 0.61 0.60 0.49
0.35 0.32 0.29 0.27 0.27 0.26 0.22 0.19 0.16 0.13 0.11 0.10 0.07 0.06 0.06 0.04 0.01 0.01 0.01 0.02 0.07 0.12 0.15 0.15 0.11 0.09 0.13 0.18 0.17 0.18 0.27 0.33 0.46 0.60 0.65 0.59 0.56 0.60 0.71 0.75 0.70 0.70 0.66
0.39 0.36 0.31 0.27 0.25 0.22 0.18 0.16 0.13 0.11 0.10 0.10 0.08 0.07 0.08 0.04 0.00 0.00 0.01 0.04 0.10 0.12 0.13 0.15 0.20 0.23 0.17 0.14 0.15 0.26 0.37 0.45 0.50 0.55 0.64 0.59 0.56 0.57 0.64 0.68 0.67 0.68 0.62
0.37 0.30 0.24 0.18 0.16 0.14 0.13 0.12 0.12 0.12 0.11 0.09 0.08 0.09 0.11 0.08 0.01 0.00 0.01 0.05 0.09 0.10 0.10 0.12 0.14 0.20 0.14 0.12 0.21 0.38 0.47 0.59 0.61 0.73 0.73 0.67 0.66 0.65 0.56 0.54 0.68 0.79 0.73
0.23 0.18 0.13 0.09 0.09 0.09 0.10 0.11 0.11 0.12 0.11 0.08 0.08 0.10 0.11 0.10 0.02 0.00 0.01 0.05 0.10 0.11 0.15 0.18 0.14 0.11 0.11 0.15 0.24 0.44 0.60 0.67 0.82 1.01 0.97 0.91 0.85 0.80 0.67 0.61 0.79 0.91 0.87
0.13 0.10 0.07 0.05 0.06 0.07 0.10 0.13 0.14 0.14 0.14 0.12 0.13 0.13 0.11 0.07 0.03 0.00 0.01 0.04 0.08 0.13 0.18 0.23 0.24 0.16 0.16 0.18 0.29 0.49 0.67 0.69 0.90 1.16 1.05 0.88 0.81 0.74 0.72 0.73 0.79 0.83 0.80
0.09 0.08 0.07 0.05 0.03 0.05 0.12 0.16 0.15 0.16 0.17 0.17 0.17 0.15 0.12 0.09 0.05 0.01 0.00 0.01 0.04 0.16 0.29 0.29 0.28 0.25 0.22 0.27 0.40 0.59 0.73 0.87 1.03 1.12 0.95 0.76 0.64 0.61 0.62 0.58 0.57 0.58 0.61
0.12 0.12 0.10 0.07 0.06 0.07 0.12 0.16 0.16 0.16 0.15 0.13 0.13 0.14 0.13 0.13 0.09 0.02 0.01 0.02 0.05 0.15 0.29 0.34 0.33 0.30 0.37 0.56 0.68 0.79 0.91 1.06 1.09 0.96 0.82 0.71 0.58 0.51 0.48 0.48 0.47 0.50 0.53
0.13 0.12 0.10 0.11 0.12 0.12 0.13 0.10 0.11 0.12 0.10 0.09 0.11 0.13 0.16 0.17 0.10 0.06 0.07 0.08 0.11 0.17 0.25 0.39 0.47 0.50 0.64 0.84 0.97 1.06 1.13 1.14 0.98 0.86 0.75 0.65 0.53 0.48 0.46 0.42 0.44 0.46 0.49
0.13 0.12 0.10 0.10 0.12 0.18 0.15 0.07 0.05 0.06 0.02 0.05 0.08 0.11 0.16 0.17 0.08 0.06 0.09 0.12 0.15 0.20 0.25 0.40 0.56 0.62 0.76 0.91 1.02 1.06 1.08 1.07 0.98 0.85 0.74 0.64 0.55 0.49 0.46 0.40 0.40 0.42 0.45
0.15 0.12 0.07 0.06 0.09 0.12 0.15 0.14 0.05 0.01 0.00 0.01 0.03 0.05 0.07 0.09 0.07 0.06 0.08 0.12 0.17 0.23 0.30 0.50 0.62 0.65 0.73 0.83 0.92 0.99 0.98 0.93 0.86 0.80 0.75 0.68 0.59 0.52 0.49 0.44 0.40 0.41 0.44
0.10 0.09 0.04 0.03 0.06 0.08 0.11 0.19 0.20 0.11 0.03 0.02 0.02 0.03 0.05 0.06 0.07 0.06 0.07 0.12 0.16 0.25 0.37 0.56 0.67 0.73 0.78 0.81 0.82 0.85 0.90 0.89 0.81 0.74 0.69 0.63 0.55 0.49 0.45 0.43 0.38 0.37 0.37
0.04 0.03 0.03 0.04 0.03 0.04 0.06 0.09 0.14 0.21 0.21 0.16 0.07 0.04 0.04 0.07 0.09 0.09 0.10 0.13 0.19 0.26 0.41 0.56 0.67 0.72 0.77 0.79 0.77 0.73 0.76 0.78 0.72 0.64 0.58 0.53 0.49 0.46 0.41 0.39 0.35 0.28 0.27
0.03 0.04 0.03 0.02 0.02 0.02 0.03 0.05 0.08 0.12 0.17 0.19 0.17 0.10 0.07 0.10 0.13 0.14 0.16 0.18 0.24 0.29 0.38 0.50 0.60 0.65 0.66 0.66 0.67 0.65 0.65 0.67 0.63 0.57 0.53 0.49 0.45 0.40 0.37 0.30 0.26 0.18 0.21
0.02 0.01 0.01 0.01 0.01 0.01 0.02 0.03 0.06 0.11 0.12 0.14 0.16 0.13 0.12 0.22 0.32 0.29 0.23 0.22 0.23 0.26 0.34 0.45 0.54 0.56 0.55 0.51 0.49 0.49 0.50 0.50 0.50 0.48 0.47 0.45 0.41 0.36 0.29 0.24 0.21 0.21 0.22
0.02 0.01 0.00 0.01 0.00 0.00 0.01 0.01 0.03 0.07 0.10 0.12 0.10 0.09 0.16 0.26 0.36 0.35 0.31 0.29 0.29 0.30 0.32 0.36 0.42 0.45 0.44 0.40 0.36 0.34 0.34 0.37 0.38 0.38 0.39 0.38 0.33 0.29 0.23 0.18 0.16 0.13 0.13
0.01 0.01 0.00 0.00 0.00 0.00 0.00 0.01 0.02 0.03 0.05 0.09 0.10 0.10 0.16 0.22 0.29 0.33 0.34 0.35 0.37 0.36 0.33 0.33 0.34 0.36 0.35 0.33 0.30 0.27 0.26 0.27 0.28 0.31 0.33 0.32 0.28 0.23 0.17 0.12 0.09 0.08 0.07
0.00 0.01 0.01 0.00 0.00 0.00 0.01 0.01 0.02 0.02 0.03 0.05 0.07 0.11 0.15 0.22 0.28 0.34 0.39 0.38 0.37 0.37 0.33 0.29 0.32 0.35 0.32 0.28 0.25 0.22 0.21 0.21 0.21 0.24 0.31 0.32 0.26 0.19 0.13 0.09 0.06 0.05 0.04
0.00 0.00 0.00 0.00 0.00 0.00 0.01 0.01 0.01 0.01 0.01 0.03 0.05 0.08 0.12 0.18 0.23 0.27 0.33 0.36 0.37 0.37 0.37 0.37 0.37 0.36 0.31 0.25 0.21 0.19 0.18 0.19 0.19 0.23 0.27 0.29 0.24 0.16 0.10 0.07 0.05 0.04 0.04
0.00 0.00 0.00 0.00 0.00 0.00 0.00 0.00 0.00 0.01 0.01 0.02 0.03 0.05 0.09 0.11 0.13 0.16 0.21 0.26 0.29 0.32 0.34 0.36 0.35 0.32 0.27 0.21 0.17 0.14 0.16 0.16 0.14 0.18 0.25 0.28 0.21 0.14 0.09 0.06 0.05 0.04 0.04
0.00 0.00 0.00 0.00 0.00 0.00 0.00 0.00 0.01 0.01 0.01 0.01 0.02 0.03 0.05 0.07 0.09 0.12 0.14 0.17 0.19 0.23 0.27 0.32 0.32 0.23 0.15 0.11 0.11 0.10 0.08 0.06 0.05 0.08 0.18 0.23 0.17 0.12 0.12 0.09 0.05 0.04 0.05

GEFSGL_prec_meanprecacc_108.txt.gz
Total_Precipitation_Accumulation
0.73 0.71 0.68 0.66 0.62 0.57 0.54 0.50 0.43 0.38 0.33 0.31 0.29 0.27 0.25 0.24 0.24 0.24 0.24 0.23 0.20 0.18 0.15 0.13 0.12 0.11 0.12 0.12 0.12 0.14 0.15 0.22 0.26 0.14 0.08 0.09 0.15 0.23 0.31 0.34 0.34 0.32 0.28
0.56 0.58 0.57 0.51 0.47 0.45 0.41 0.40 0.38 0.34 0.30 0.29 0.28 0.27 0.24 0.21 0.20 0.21 0.20 0.18 0.17 0.15 0.13 0.12 0.11 0.11 0.11 0.11 0.12 0.13 0.15 0.21 0.30 0.26 0.14 0.10 0.13 0.20 0.26 0.29 0.25 0.24 0.27
0.36 0.35 0.37 0.35 0.33 0.32 0.29 0.28 0.28 0.27 0.25 0.24 0.23 0.22 0.21 0.21 0.21 0.19 0.17 0.15 0.15 0.14 0.14 0.15 0.15 0.15 0.14 0.14 0.16 0.17 0.19 0.22 0.31 0.34 0.22 0.17 0.18 0.25 0.36 0.35 0.30 0.38 0.31
0.27 0.25 0.26 0.27 0.26 0.25 0.24 0.24 0.23 0.22 0.21 0.18 0.16 0.15 0.15 0.15 0.13 0.11 0.10 0.09 0.09 0.09 0.10 0.13 0.14 0.15 0.16 0.20 0.21 0.25 0.29 0.33 0.34 0.36 0.29 0.23 0.26 0.30 0.43 0.50 0.46 0.43 0.39
0.29 0.27 0.26 0.24 0.24 0.23 0.23 0.23 0.21 0.19 0.16 0.16 0.15 0.13 0.11 0.09 0.06 0.05 0.04 0.05 0.06 0.07 0.09 0.11 0.12 0.13 0.18 0.20 0.21 0.26 0.34 0.41 0.43 0.46 0.40 0.35 0.33 0.42 0.50 0.53 0.50 0.48 0.41
0.31 0.32 0.31 0.29 0.29 0.28 0.26 0.24 0.22 0.19 0.17 0.13 0.10 0.08 0.07 0.04 0.03 0.03 0.02 0.03 0.05 0.08 0.12 0.12 0.10 0.09 0.10 0.11 0.15 0.22 0.31 0.40 0.48 0.55 0.54 0.51 0.45 0.50 0.59 0.61 0.61 0.60 0.49
0.39 0.37 0.34 0.32 0.32 0.29 0.25 0.22 0.19 0.16 0.13 0.11 0.08 0.06 0.07 0.04 0.02 0.01 0.01 0.03 0.08 0.13 0.16 0.15 0.11 0.09 0.13 0.19 0.18 0.19 0.27 0.34 0.46 0.60 0.65 0.59 0.56 0.60 0.71 0.75 0.71 0.70 0.66
0.42 0.39 0.36 0.33 0.31 0.27 0.22 0.20 0.17 0.14 0.13 0.11 0.09 0.07 0.08 0.04 0.00 0.01 0.01 0.04 0.10 0.13 0.14 0.16 0.21 0.23 0.18 0.15 0.16 0.27 0.38 0.46 0.50 0.55 0.64 0.59 0.56 0.57 0.65 0.68 0.67 0.68 0.62
0.39 0.33 0.28 0.24 0.22 0.20 0.18 0.17 0.15 0.14 0.13 0.10 0.09 0.10 0.11 0.08 0.01 0.01 0.01 0.06 0.10 0.11 0.11 0.12 0.15 0.20 0.14 0.13 0.21 0.38 0.48 0.60 0.62 0.73 0.73 0.67 0.66 0.65 0.56 0.54 0.68 0.79 0.73
0.27 0.21 0.16 0.13 0.12 0.13 0.14 0.14 0.14 0.13 0.12 0.09 0.09 0.11 0.12 0.10 0.03 0.01 0.02 0.06 0.11 0.11 0.15 0.18 0.14 0.11 0.12 0.16 0.24 0.44 0.60 0.67 0.82 1.01 0.97 0.91 0.85 0.80 0.67 0.61 0.79 0.91 0.87
0.16 0.13 0.10 0.08 0.08 0.09 0.12 0.15 0.16 0.15 0.15 0.13 0.13 0.14 0.12 0.07 0.03 0.01 0.01 0.04 0.09 0.13 0.19 0.24 0.24 0.16 0.16 0.18 0.29 0.49 0.67 0.69 0.90 1.16 1.05 0.88 0.81 0.74 0.72 0.74 0.80 0.83 0.80
0.12 0.11 0.10 0.07 0.05 0.06 0.14 0.18 0.16 0.17 0.17 0.17 0.17 0.15 0.12 0.09 0.05 0.02 0.00 0.02 0.04 0.16 0.29 0.29 0.28 0.25 0.22 0.27 0.41 0.59 0.73 0.87 1.03 1.12 0.95 0.76 0.64 0.61 0.62 0.58 0.57 0.59 0.62
0.15 0.15 0.13 0.10 0.08 0.08 0.13 0.16 0.16 0.17 0.15 0.13 0.14 0.14 0.13 0.13 0.09 0.02 0.01 0.02 0.05 0.15 0.29 0.34 0.33 0.30 0.37 0.56 0.68 0.79 0.91 1.06 1.09 0.96 0.82 0.71 0.58 0.51 0.49 0.48 0.47 0.50 0.53
0.15 0.13 0.12 0.12 0.13 0.13 0.14 0.10 0.11 0.12 0.10 0.10 0.11 0.14 0.16 0.17 0.10 0.06 0.07 0.08 0.11 0.17 0.26 0.39 0.47 0.50 0.64 0.84 0.97 1.06 1.13 1.14 0.98 0.86 0.75 0.65 0.53 0.48 0.46 0.42 0.44 0.46 0.49
0.14 0.12 0.11 0.11 0.13 0.18 0.15 0.07 0.05 0.06 0.02 0.05 0.08 0.11 0.16 0.17 0.08 0.06 0.09 0.12 0.15 0.20 0.25 0.40 0.56 0.62 0.76 0.91 1.02 1.06 1.08 1.07 0.98 0.85 0.74 0.64 0.55 0.50 0.47 0.40 0.40 0.42 0.45
0.16 0.13 0.08 0.07 0.10 0.12 0.16 0.14 0.05 0.01 0.00 0.01 0.03 0.05 0.07 0.09 0.07 0.06 0.08 0.12 0.17 0.23 0.30 0.50 0.62 0.65 0.73 0.83 0.92 0.99 0.98 0.93 0.86 0.80 0.75 0.68 0.60 0.52 0.49 0.44 0.41 0.41 0.44
0.11 0.09 0.05 0.04 0.06 0.08 0.12 0.19 0.20 0.11 0.03 0.02 0.02 0.03 0.05 0.06 0.07 0.06 0.07 0.12 0.16 0.25 0.37 0.56 0.67 0.73 0.78 0.81 0.82 0.85 0.90 0.89 0.81 0.74 0.70 0.63 0.55 0.49 0.46 0.43 0.38 0.37 0.38
0.05 0.03 0.03 0.04 0.03 0.04 0.06 0.09 0.14 0.21 0.21 0.16 0.07 0.04 0.04 0.07 0.09 0.09 0.10 0.13 0.19 0.26 0.41 0.56 0.67 0.72 0.77 0.79 0.77 0.73 0.76 0.78 0.72 0.64 0.59 0.53 0.49 0.46 0.41 0.39 0.35 0.28 0.27
0.04 0.04 0.03 0.02 0.02 0.02 0.03 0.05 0.08 0.12 0.17 0.19 0.17 0.10 0.07 0.10 0.13 0.14 0.16 0.18 0.24 0.29 0.38 0.50 0.60 0.65 0.66 0.66 0.67 0.65 0.65 0.67 0.63 0.57 0.53 0.49 0.45 0.41 0.37 0.30 0.26 0.18 0.21
0.03 0.01 0.01 0.02 0.01 0.01 0.02 0.03 0.06 0.11 0.12 0.14 0.16 0.14 0.12 0.22 0.32 0.29 0.23 0.22 0.23 0.26 0.34 0.45 0.54 0.56 0.55 0.51 0.49 0.49 0.50 0.50 0.50 0.48 0.47 0.45 0.41 0.36 0.29 0.24 0.21 0.21 0.22
0.02 0.01 0.00 0.01 0.01 0.01 0.01 0.01 0.04 0.07 0.10 0.12 0.10 0.09 0.16 0.26 0.36 0.35 0.31 0.29 0.29 0.30 0.32 0.36 0.42 0.45 0.44 0.40 0.36 0.34 0.34 0.37 0.38 0.38 0.39 0.38 0.33 0.29 0.23 0.18 0.16 0.13 0.13
0.01 0.01 0.01 0.01 0.00 0.00 0.01 0.01 0.02 0.03 0.05 0.09 0.10 0.10 0.16 0.22 0.29 0.33 0.34 0.35 0.37 0.36 0.33 0.33 0.34 0.36 0.35 0.33 0.30 0.27 0.26 0.27 0.28 0.31 0.33 0.32 0.28 0.23 0.17 0.12 0.09 0.08 0.07
0.01 0.01 0.01 0.00 0.00 0.00 0.01 0.01 0.02 0.02 0.03 0.05 0.07 0.11 0.15 0.22 0.28 0.35 0.39 0.38 0.37 0.37 0.33 0.29 0.32 0.35 0.32 0.28 0.25 0.22 0.21 0.21 0.21 0.24 0.31 0.32 0.26 0.19 0.13 0.09 0.06 0.05 0.04
0.00 0.00 0.00 0.00 0.00 0.00 0.01 0.01 0.01 0.01 0.01 0.03 0.05 0.08 0.12 0.18 0.23 0.27 0.33 0.36 0.37 0.37 0.37 0.37 0.37 0.36 0.31 0.25 0.21 0.19 0.18 0.19 0.19 0.23 0.27 0.29 0.24 0.16 0.10 0.07 0.05 0.04 0.04
0.00 0.00 0.00 0.00 0.00 0.00 0.00 0.01 0.01 0.01 0.01 0.02 0.03 0.05 0.09 0.11 0.13 0.16 0.21 0.26 0.29 0.32 0.34 0.36 0.35 0.32 0.27 0.21 0.17 0.14 0.16 0.16 0.14 0.18 0.25 0.28 0.21 0.14 0.09 0.06 0.05 0.04 0.04
0.00 0.00 0.00 0.00 0.00 0.00 0.00 0.00 0.01 0.01 0.01 0.01 0.02 0.03 0.05 0.07 0.09 0.12 0.14 0.17 0.19 0.23 0.27 0.32 0.32 0.23 0.15 0.11 0.11 0.10 0.08 0.06 0.05 0.08 0.18 0.23 0.17 0.12 0.12 0.09 0.05 0.04 0.05

GEFSGL_prec_meanprecacc_114.txt.gz
Total_Precipitation_Accumulation
0.79 0.75 0.73 0.70 0.66 0.61 0.57 0.53 0.46 0.40 0.36 0.34 0.32 0.31 0.30 0.31 0.32 0.33 0.35 0.33 0.30 0.27 0.23 0.21 0.19 0.16 0.17 0.17 0.18 0.20 0.23 0.30 0.34 0.22 0.14 0.13 0.17 0.24 0.31 0.34 0.34 0.32 0.28
0.61 0.63 0.61 0.56 0.51 0.48 0.44 0.43 0.41 0.37 0.33 0.33 0.33 0.31 0.29 0.27 0.28 0.29 0.29 0.28 0.27 0.24 0.20 0.17 0.16 0.15 0.15 0.15 0.16 0.18 0.21 0.28 0.36 0.34 0.21 0.14 0.16 0.21 0.27 0.29 0.25 0.24 0.27
0.39 0.39 0.41 0.40 0.38 0.36 0.32 0.31 0.31 0.30 0.29 0.28 0.27 0.27 0.27 0.26 0.25 0.23 0.22 0.21 0.19 0.18 0.18 0.18 0.18 0.18 0.17 0.17 0.19 0.21 0.24 0.28 0.37 0.40 0.27 0.20 0.19 0.26 0.36 0.35 0.30 0.38 0.31
0.31 0.29 0.31 0.32 0.30 0.30 0.28 0.27 0.26 0.26 0.25 0.22 0.20 0.19 0.19 0.18 0.16 0.14 0.11 0.11 0.11 0.10 0.11 0.14 0.16 0.17 0.19 0.23 0.24 0.27 0.31 0.36 0.37 0.39 0.32 0.25 0.26 0.31 0.43 0.50 0.46 0.43 0.39
0.34 0.31 0.30 0.29 0.28 0.28 0.29 0.28 0.26 0.23 0.20 0.18 0.17 0.15 0.13 0.11 0.08 0.06 0.05 0.05 0.07 0.08 0.09 0.12 0.13 0.14 0.19 0.21 0.23 0.27 0.36 0.42 0.44 0.47 0.42 0.36 0.34 0.43 0.51 0.53 0.50 0.48 0.41
0.35 0.36 0.34 0.32 0.33 0.32 0.30 0.29 0.27 0.23 0.19 0.15 0.12 0.10 0.09 0.06 0.05 0.04 0.03 0.04 0.06 0.09 0.13 0.13 0.10 0.10 0.10 0.11 0.15 0.23 0.32 0.42 0.50 0.56 0.54 0.52 0.46 0.51 0.60 0.61 0.61 0.60 0.49
0.42 0.40 0.37 0.35 0.35 0.32 0.29 0.27 0.25 0.20 0.16 0.13 0.09 0.08 0.08 0.06 0.03 0.02 0.02 0.04 0.09 0.14 0.17 0.16 0.12 0.10 0.14 0.20 0.19 0.19 0.28 0.34 0.47 0.62 0.67 0.60 0.57 0.60 0.71 0.75 0.71 0.70 0.66
0.45 0.42 0.39 0.35 0.34 0.31 0.27 0.26 0.22 0.18 0.15 0.13 0.10 0.08 0.09 0.05 0.01 0.01 0.02 0.05 0.11 0.13 0.14 0.16 0.21 0.24 0.18 0.15 0.17 0.27 0.39 0.46 0.50 0.56 0.65 0.60 0.56 0.57 0.65 0.68 0.67 0.68 0.62
0.42 0.36 0.30 0.27 0.25 0.24 0.25 0.23 0.20 0.18 0.15 0.12 0.10 0.10 0.12 0.09 0.01 0.01 0.01 0.06 0.11 0.11 0.11 0.12 0.15 0.21 0.15 0.14 0.22 0.40 0.49 0.61 0.62 0.74 0.74 0.68 0.67 0.65 0.56 0.54 0.68 0.79 0.73
0.30 0.24 0.19 0.16 0.16 0.17 0.18 0.19 0.17 0.16 0.15 0.11 0.10 0.12 0.12 0.11 0.03 0.01 0.02 0.06 0.11 0.11 0.15 0.18 0.14 0.11 0.12 0.17 0.26 0.45 0.61 0.68 0.83 1.02 0.98 0.91 0.85 0.80 0.67 0.61 0.79 0.91 0.87
0.19 0.16 0.13 0.11 0.11 0.13 0.15 0.17 0.18 0.17 0.17 0.14 0.14 0.14 0.12 0.07 0.03 0.01 0.01 0.05 0.09 0.13 0.19 0.24 0.24 0.17 0.16 0.19 0.30 0.50 0.67 0.70 0.90 1.17 1.06 0.88 0.81 0.74 0.73 0.74 0.80 0.84 0.81
0.15 0.14 0.13 0.10 0.08 0.09 0.17 0.20 0.18 0.19 0.19 0.19 0.18 0.16 0.12 0.09 0.05 0.02 0.01 0.02 0.04 0.16 0.30 0.30 0.29 0.25 0.22 0.28 0.41 0.60 0.73 0.88 1.03 1.13 0.95 0.76 0.64 0.61 0.62 0.59 0.57 0.59 0.63
0.17 0.17 0.15 0.13 0.11 0.11 0.16 0.19 0.18 0.18 0.17 0.14 0.15 0.14 0.13 0.13 0.09 0.02 0.02 0.02 0.05 0.15 0.29 0.34 0.33 0.30 0.37 0.56 0.68 0.79 0.91 1.06 1.09 0.96 0.82 0.71 0.58 0.52 0.49 0.48 0.47 0.50 0.54
0.17 0.15 0.14 0.15 0.16 0.16 0.15 0.11 0.12 0.13 0.11 0.10 0.12 0.14 0.17 0.17 0.10 0.06 0.07 0.09 0.11 0.17 0.26 0.39 0.47 0.50 0.64 0.84 0.97 1.06 1.13 1.14 0.99 0.87 0.75 0.65 0.53 0.48 0.46 0.42 0.44 0.46 0.49
0.15 0.14 0.13 0.12 0.14 0.19 0.16 0.07 0.05 0.06 0.03 0.05 0.08 0.11 0.16 0.17 0.08 0.06 0.09 0.12 0.15 0.20 0.25 0.40 0.56 0.62 0.76 0.91 1.02 1.07 1.09 1.07 0.98 0.85 0.74 0.64 0.55 0.50 0.47 0.41 0.40 0.42 0.45
0.17 0.14 0.09 0.08 0.10 0.12 0.16 0.15 0.05 0.01 0.00 0.01 0.03 0.05 0.07 0.09 0.07 0.06 0.08 0.12 0.17 0.23 0.30 0.50 0.63 0.65 0.74 0.83 0.92 0.99 0.98 0.93 0.86 0.80 0.75 0.69 0.60 0.52 0.49 0.44 0.41 0.41 0.44
0.11 0.10 0.05 0.04 0.06 0.08 0.12 0.19 0.20 0.11 0.03 0.02 0.02 0.03 0.05 0.06 0.07 0.06 0.07 0.12 0.16 0.25 0.37 0.57 0.67 0.73 0.78 0.81 0.82 0.85 0.90 0.89 0.81 0.74 0.70 0.63 0.55 0.49 0.46 0.43 0.38 0.37 0.38
0.05 0.03 0.03 0.04 0.03 0.04 0.06 0.09 0.14 0.21 0.21 0.16 0.07 0.04 0.04 0.07 0.09 0.09 0.10 0.13 0.19 0.26 0.41 0.56 0.67 0.73 0.77 0.79 0.77 0.73 0.76 0.78 0.72 0.64 0.59 0.54 0.49 0.46 0.41 0.39 0.35 0.28 0.27
0.04 0.04 0.03 0.02 0.02 0.02 0.03 0.05 0.08 0.12 0.17 0.19 0.17 0.10 0.07 0.10 0.13 0.14 0.16 0.18 0.24 0.29 0.38 0.50 0.60 0.65 0.66 0.66 0.67 0.65 0.65 0.67 0.63 0.57 0.53 0.49 0.45 0.41 0.37 0.30 0.26 0.18 0.21
0.03 0.01 0.01 0.02 0.01 0.01 0.02 0.03 0.06 0.11 0.12 0.14 0.16 0.14 0.12 0.22 0.32 0.29 0.23 0.22 0.23 0.26 0.34 0.45 0.54 0.56 0.55 0.51 0.49 0.49 0.50 0.50 0.50 0.48 0.47 0.45 0.41 0.36 0.29 0.24 0.21 0.21 0.22
0.02 0.01 0.00 0.01 0.01 0.01 0.01 0.01 0.04 0.07 0.10 0.12 0.10 0.09 0.16 0.26 0.36 0.35 0.31 0.29 0.29 0.30 0.32 0.36 0.42 0.45 0.44 0.40 0.36 0.34 0.34 0.37 0.38 0.38 0.39 0.38 0.33 0.29 0.23 0.18 0.16 0.13 0.13
0.01 0.01 0.01 0.01 0.00 0.00 0.01 0.01 0.02 0.03 0.05 0.09 0.10 0.10 0.16 0.22 0.29 0.33 0.34 0.35 0.37 0.36 0.33 0.33 0.34 0.36 0.35 0.33 0.30 0.27 0.26 0.27 0.28 0.31 0.33 0.32 0.28 0.23 0.17 0.12 0.09 0.08 0.07
0.01 0.01 0.01 0.00 0.00 0.00 0.01 0.01 0.02 0.02 0.03 0.05 0.07 0.11 0.15 0.22 0.28 0.35 0.39 0.38 0.37 0.37 0.33 0.29 0.32 0.35 0.32 0.28 0.25 0.22 0.21 0.21 0.21 0.24 0.31 0.32 0.26 0.19 0.13 0.09 0.06 0.05 0.04
0.00 0.00 0.00 0.00 0.00 0.00 0.01 0.01 0.01 0.01 0.01 0.03 0.05 0.08 0.12 0.18 0.23 0.27 0.33 0.36 0.37 0.37 0.37 0.37 0.37 0.36 0.31 0.25 0.21 0.19 0.18 0.19 0.19 0.23 0.27 0.29 0.24 0.16 0.10 0.07 0.05 0.04 0.04
0.00 0.00 0.00 0.00 0.00 0.00 0.00 0.01 0.01 0.01 0.01 0.02 0.03 0.05 0.09 0.11 0.13 0.16 0.21 0.26 0.29 0.32 0.34 0.36 0.35 0.32 0.27 0.21 0.17 0.14 0.16 0.16 0.14 0.18 0.25 0.28 0.21 0.14 0.09 0.06 0.05 0.04 0.04
0.00 0.00 0.00 0.00 0.00 0.00 0.00 0.00 0.01 0.01 0.01 0.01 0.02 0.03 0.05 0.07 0.09 0.12 0.14 0.17 0.19 0.23 0.27 0.32 0.32 0.23 0.15 0.11 0.11 0.10 0.08 0.06 0.05 0.08 0.18 0.23 0.17 0.12 0.12 0.09 0.05 0.04 0.05